Preview of NWS' New Version of Forecast
This preview is not operational and should not be used for support decisions.

Regional Weather Roundup (RWR)

Issued by National Weather Service (NWS)

                            
000
ASUS45 KABQ 201310
RWRNM 
NEW MEXICO REGIONAL WEATHER ROUNDUP
NATIONAL WEATHER SERVICE ALBUQUERQUE NM
700 AM MDT THU JUN 20 2019

NOTE: "FAIR" MEANS FEW OR NO CLOUDS BELOW 12,000 FEET AGL WITH NO
       SIGNIFICANT WEATHER OR OBSTRUCTIONS TO VISION.

      THIS PRODUCT IS RELEASED AS TWO VERSIONS.  ONE VERSION NEAR
      THE TOP OF THE HOUR CONTAINING PRELIMINARY DATA FROM ALBUQUERQUE
      AND OTHER STATIONS.  A FINAL VERSION WITH ADDITIONAL DATA IS 
      ISSUED ABOUT 10 MINUTES AFTER THE HOUR.
 
NMZ501-503-504-510>518-201400-
NORTHWEST PLATEAU/NORTHCENTRAL MOUNTAINS
  
CITY           SKY/WX    TMP DP  RH WIND       PRES   REMARKS
FARMINGTON     FAIR      56  36  47 NE6       30.01R                  
LOS ALAMOS       N/A     65  28  25 W8        30.15R                  
SANTA FE       FAIR      56  35  45 CALM      30.09R                  
TAOS           FAIR      51  34  52 SE3       30.15R                  
ANGEL FIRE       N/A     53  33  47 CALM      30.20R                  

$$
NMZ402-403-502-505>509-201400-
WESTCENTRAL MOUNTAINS/SOUTHWEST MOUNTAINS
  
CITY           SKY/WX    TMP DP  RH WIND       PRES   REMARKS
GALLUP         FAIR      58  24  27 S8        30.15R                  
GRANTS         FAIR      59  25  27 SE3       30.17R                  
SILVER CITY    FAIR      64  20  19 N12       30.10R                  

$$
NMZ407-409-411-412-201400-
SOUTHERN DESERTS
  
CITY           SKY/WX    TMP DP  RH WIND       PRES   REMARKS
DEMING         FAIR      62  23  22 W6        30.03R                  
LAS CRUCES     FAIR      68  23  18 W15       30.01S                  
HOLLOMAN AFB   FAIR      68  29  23 E3        30.00R                  
ALAMOGORDO     FAIR      66  28  24 CALM      29.99R                  
T OR C         FAIR      76  19  11 NW16      30.01R                  

$$
NMZ519>523-201400-
CENTRAL VALLEYS/CENTRAL HIGHLANDS
  
CITY           SKY/WX    TMP DP  RH WIND       PRES   REMARKS
ALBUQUERQUE    FAIR      63  28  26 SE7       30.05R                  
DOUBLE EAGLE   SUNNY     55  28  35 CALM      30.08R                  
MORIARTY ARPT  FAIR      57  36  46 NE5       30.11R                  
CLINES CORNERS FAIR      57  33  40 NW10      30.14R                  
BELEN          FAIR      68  24  19 E6        30.05R                  
SOCORRO        FAIR      76  23  13 S5        30.03R                  

$$
NMZ524>526-539-540-201400-
SOUTHCENTRAL MOUNTAINS
  
CITY           SKY/WX    TMP DP  RH WIND       PRES   REMARKS
RUIDOSO        FAIR      66  23  19 W5        30.17R                  

$$
NMZ527>531-201400-
NORTHEAST HIGHLANDS/NORTHEAST PLAINS
  
CITY           SKY/WX    TMP DP  RH WIND       PRES   REMARKS
LAS VEGAS      FAIR      61  36  39 SW10      30.08S                  
RATON          FAIR      53  38  56 NE5       30.02R                  
CLAYTON        FAIR      66  42  41 W13       29.90R                  

$$
NMZ532>537-201400-
EASTCENTRAL PLAINS
  
CITY           SKY/WX    TMP DP  RH WIND       PRES   REMARKS
SANTA ROSA     FAIR      66  38  34 W5        29.96R                  
TUCUMCARI      FAIR      65  42  43 W3        29.87R                  
CANNON AFB     FAIR      67  48  50 W8G23     29.92R                  
CLOVIS AIRPORT FAIR      67  56  67 W6        29.90S                  

$$
NMZ028-029-538-201400-
SOUTHEAST PLAINS
  
CITY           SKY/WX    TMP DP  RH WIND       PRES   REMARKS
ROSWELL        FAIR      72  30  21 CALM      29.88R                  
ARTESIA        FAIR      73  34  23 N5        29.91R                  
CARLSBAD       FAIR      79  27  14 E5        29.86R                  
HOBBS          SUNNY     73  25  16 W12       29.88R                  


$$